User: anonymous   Login
Location: Unspecified
(0.0000°N, 0.0000°E)
Time: 07:19:40
(UTC+00:00)
Language:

S-56A Canister/Altair - Orbit

View from above orbital plane
View from above orbital plane
View from above satellite
View from above satellite

Ground track
Ground track

The orbit data is extracted from the following two-line orbital elements,

1    82U 61004B   20299.84104198 -.00000053 +00000-0 -59437-6 0  9992
2    82 038.8588 075.5821 1174885 352.8604 005.6576 12.26056759823816
Epoch (UTC): 25 October 2020 20:11:06
Eccentricity: 0.1174885
inclination: 38.8588°
perigee height: 633 km
apogee height: 2499 km
right ascension of ascending node: 75.5821°
argument of perigee: 352.8604°
revolutions per day: 12.26056759
mean anomaly at epoch: 5.6576°
orbit number at epoch: 82381

The dashed part of the orbit path shows where the satellite is in the earth's shadow,  

DLR